Volver al catálogo

IRIDIUM 7

ActivoComunicacionesPO
NORAD 24793·PAYLOAD·🇺🇸 United States

Lanzado May 5, 1997 desde Vandenberg Space Force Base

Loading…

Próximos Pases (próximas 24 horas)

TLE

ActualizadoSource: Space-Track

Época: Sep 13, 2026, 18:22 UTC

1 24793U 97020B   26256.76565856  .00000229  00000-0  71482-4 0  9991
2 24793  86.4017 346.7103 0002533  89.4368 270.7119 14.36284621536994

Sigue IRIDIUM 7 en tiempo real con AllMySat

Download on the App Store